Regional Weather Roundup
Issued by NWS Austin/San Antonio, TX

Current Version | Previous Version | Text Only | Print | Product List | Glossary On
Versions: 1 2 3 4 5 6 7 8 9 10 11 12 13 14 15 16 17 18 19 20 21 22 23 24 25 26 27 28 29 30 31 32 33 34 35 36 37 38 39 40 41 42 43 44 45 46 47 48 49 50
000
ASUS44 KEWX 300701
RWREWX
SOUTH TEXAS REGIONAL WEATHER ROUNDUP
NATIONAL WEATHER SERVICE AUSTIN/SAN ANTONIO TX
200 AM CDT FRI SEP 30 2022

NOTE: "FAIR" INDICATED FEW OR NO CLOUDS BELOW 12,000 FEET WITH NO
SIGNIFICANT WEATHER AND/OR OBSTRUCTIONS TO VISIBILITY.

* - THESE STATIONS ARE NOT NWS OR FAA STATIONS...AND ARE NOT SUBJECT
    TO NWS AND FAA QUALITY CONTROL.

TXZ171-172-183>190-300800-
TEXAS HILL COUNTRY AND EDWARDS PLATEAU

CITY           SKY/WX    TMP DP  RH WIND       PRES   REMARKS
JUNCTION       NOT AVBL
*LLANO         CLOUDY    68  48  49 CALM      30.08S
BURNET         CLEAR     70  49  47 E5        30.11F
*HORSESHOE BAY CLEAR     69  47  45 SE5       30.08S
*LAGO VISTA      N/A     68  48  49 E8        30.10S
*KERRVILLE     CLEAR     61  49  65 CALM      30.09S
*FREDERICKSBRG CLEAR     61  48  61 CALM      30.09F
*ROCKSPRINGS   MOCLDY    68  46  45 SW5       30.17F
*BOERNE        CLEAR     59  46  63 CALM      30.08F
*CASTROVILLE   CLEAR     72  46  40 NW3       30.07F
HONDO          CLEAR     64  46  52 N3        30.06F
*UVALDE        CLEAR     67  50  53 CALM      30.09F
DEL RIO        CLEAR     71  52  50 E5        30.06F
*LAUGHLIN AFB  CLEAR     64  56  75 NE6       30.05F
*SPOFFORD      CLEAR     64  48  57 W3        30.06F
CARRIZO SPRGS  CLEAR     72  50  46 SW5       30.05F
*FAITH RANCH   CLEAR     66  50  55 MISG      30.07F
$$

TXZ173-191>194-202-209-217>225-228-300800-
CENTRAL AND SOUTH CENTRAL TEXAS

CITY           SKY/WX    TMP DP  RH WIND       PRES   REMARKS
GEORGETOWN     CLEAR     69  49  48 E7        30.11F
*TAYLOR        CLEAR     60  50  70 CALM      30.09S
AUSTIN/BERGSTM CLEAR     64  52  64 E5        30.07S
AUSTIN/MABRY   CLEAR     70  50  49 VRB3      30.09S
*PFLUGERVILLE  MOCLDY    66  48  52 E6        30.08R
SAN MARCOS     CLEAR    N/A N/A N/A CALM        N/A
NEW BRAUNFELS  CLEAR     69  50  50 E5        30.04F
*RANDOLPH AFB  CLEAR     67  52  59 CALM      30.03S
*SEGUIN        CLEAR     66  51  59 E6        30.04S
SAN ANTONIO    CLEAR     70  52  52 CALM      30.06S
STINSON FIELD  CLEAR     65  52  62 CALM      30.03F
*KELLY FIELD   CLEAR     65  50  58 CALM      30.02F
*PLEASANTON    CLEAR     65  55  69 CALM      30.05F
*KENEDY        CLEAR     64  56  75 CALM      30.06F
*LA GRANGE     NOT AVBL
*GIDDINGS      CLEAR     62  49  63 CALM      30.09S
*GONZALES      CLEAR     67  55  64 CALM      30.06F
$$

TXZ163>164-176>182-195>201-210>213-226-227-235-300800-
SOUTHEAST TEXAS

CITY           SKY/WX    TMP DP  RH WIND       PRES   REMARKS
COLLEGE STN    CLEAR     67  45  45 E9        30.10S
*BRYAN         CLEAR     64  44  49 E5        30.13S
*CALDWELL      CLEAR     67  47  48 E7        30.10S
*CROCKETT      CLEAR     61  41  48 CALM      30.12S
*BRENHAM       CLEAR     66  50  57 CALM      30.10
HUNTSVILLE     CLEAR     64  46  52 E3        30.10S
CONROE         CLEAR     61  45  55 E6        30.10F
HOUSTON BUSH   CLEAR     63  45  51 E9        30.09S
HOUSTON HOBBY  CLEAR     69  45  41 E15       30.08S
*HOUSTON SW AP NOT AVBL
PEARLAND       CLEAR     69  47  45 E10       30.09S
HOUSTON HOOKS  NOT AVBL
ELLINGTON FLD  CLEAR     66  48  52 NE7       30.08S
SUGAR LAND     CLEAR     69  45  41 E14       30.08R
*HOUSTON EXEC  CLEAR     68  45  42 E12       30.10R
*CLEVELAND MUN NOT AVBL
*WHARTON       CLEAR     65  50  57 E3        30.09R
*COLUMBUS      FAIR      64  52  64 E3        30.09S
*EAGLE LAKE    CLEAR     63  53  70 MISG      30.08
$$

TXZ214>216-236>238-300800-
THE UPPER TEXAS COAST

CITY           SKY/WX    TMP DP  RH WIND       PRES   REMARKS
*ORANGE        CLEAR     55  49  80 CALM      30.09F
PORT ARTHUR    CLEAR     58  48  69 N6        30.06F
GALVESTON      CLEAR     71  49  45 NE15      30.07S
ANGLETON       CLEAR     64  51  62 NE7       30.06F
*BAY CITY      CLEAR     64  54  70 NE5       30.07S
PALACIOS       CLEAR     63  59  87 NE7       30.05S
$$

TXZ229>234-239>247-300800-
TEXAS COASTAL BEND AND RIO GRANDE PLAINS

CITY           SKY/WX    TMP DP  RH WIND       PRES   REMARKS
VICTORIA       CLEAR     63  60  90 NE5       30.05F
*BEEVILLE      CLEAR     66  58  75 CALM      30.03F
ROCKPORT       CLEAR     67  63  87 CALM      30.03F
*PORT ARANSAS  CLEAR    N/A N/A N/A CALM      30.05S
*PORT LAVACA   NOT AVBL
*INGLESIDE     NOT AVBL
CORPUS CHRISTI PTCLDY    69  60  73 CALM      30.03S
CORPUS NAS     CLEAR     74  65  73 SW5       30.02F
*ROBSTOWN      CLEAR     68  59  73 MISG      30.04F
ALICE          CLEAR     66  60  81 W3        30.03F
KINGSVILLE NAS CLEAR     65  61  87 SW5       30.03F
COTULLA        CLEAR     68  52  56 NW3       30.04F
LAREDO         CLEAR     71  54  54 S6        30.05F
$$

TXZ248>255-300800-
DEEP SOUTH TEXAS

CITY           SKY/WX    TMP DP  RH WIND       PRES   REMARKS
BROWNSVILLE    CLEAR     67  63  87 CALM      30.03F
PORT ISABEL    CLEAR     67  64  90 W3        30.03F
HARLINGEN      CLEAR     66  63  90 S3        30.03F
*HEBBRONVILLE  CLEAR     65  56  71 W7        30.06F
MCALLEN        CLEAR     67  61  81 CALM      30.05F
*WESLACO       CLEAR     69  62  77 SW5       30.04
FALFURRIAS     CLEAR     64  60  87 SW5       30.03S
EDINBURG       CLEAR     65  61  88 CALM      30.05F
*ZAPATA        NOT AVBL
$$

TXZ213>215-236>238-242>244-246-247-251-254-255-300800-
CMAN STATIONS

STATION/POSITION TIME  TEMP    WIND        PRES    WAVE
                       AIR SEA DIR/SP/G            HT/PER
                 (UTC) (F)     (DEG/KT/KT) (MB)    (FT/S)
SEA RIM ST PARK  0600   64      50/  8/ 10 1018.6
NORTH JETTY/GLS  0630   72 78   80/ 20/ 24 1016.8
EAGLE POINT      0630   70 77   70/ 17/ 20 1017.9
MORGANS POINT    0630   67 81   50/ 11/ 15 1018.1
MISSION/ARANSAS  0600   78     210/  3     1018.0
PORT O`CONNOR    0624   78 89   20/  1/  2 1017.0
PORT ARANSAS     0600   80     130/  4/  5   N/A
BAFFIN BAY       0624   76 82  200/  7/  7 1017.2
PORT ISABEL      0624   73 82   CALM  /  1 1016.4
$$



USA.gov is the U.S. government's official web portal to all federal, state and local government web resources and services.